Zurück zum Katalog

STARLINK-30953

AktivKommunikationVLEO
NORAD 58491·PAYLOAD·🇺🇸 United States

Gestartet Dec 3, 2023 von Cape Canaveral Space Force Station

Loading…

Nächste Überflüge (nächste 24 Stunden)

TLE

AktuellSource: CelesTrak SupGP

Epoche: Sep 15, 2026, 02:47 UTC

1 58491C 23186U   26258.11645833  .00000154  00000+0  55839-5 0  2583
2 58491  42.9999 277.7215 0001451 262.5880 345.5209 15.27581752    16

Verfolge STARLINK-30953 in Echtzeit mit AllMySat

Download on the App Store